Location: Rodanthe
(35.5920°N, 75.4670°W)
Time: 12:31:58
(UTC-05:00)

ISS - All Passes

Search period start: 22 February 2017 00:00
Search period end: 04 March 2017 00:00
Orbit: 399 x 408 km, 51.6° (Epoch: 23 February)

Date Brightness Start Highest point End Pass type
(mag) Time Alt. Az. Time Alt. Az. Time Alt. Az.
22 Feb - 07:25:27 10° SE 07:26:07 10° SE 07:26:46 10° ESE daylight
22 Feb - 08:58:55 10° WSW 09:02:10 60° NW 09:05:26 10° NE daylight
22 Feb - 10:38:26 10° NW 10:39:12 11° NNW 10:39:58 10° N daylight
22 Feb - 15:29:10 10° NNW 15:32:15 38° NE 15:35:20 10° ESE daylight
22 Feb - 17:06:20 10° W 17:08:29 16° SW 17:10:37 10° S daylight
23 Feb - 08:06:27 10° SW 08:09:41 61° SE 08:12:57 10° NE daylight
23 Feb - 09:44:18 10° WNW 09:46:25 16° NNW 09:48:32 10° NNE daylight
23 Feb - 14:37:00 10° NNW 14:39:38 22° NNE 14:42:15 10° E daylight
23 Feb - 16:13:08 10° WNW 16:16:09 34° SW 16:19:08 10° SSE daylight
24 Feb - 07:14:26 10° SSW 07:17:17 27° SE 07:20:09 10° ENE daylight
24 Feb - 08:50:54 10° W 08:53:43 25° NNW 08:56:32 10° NNE daylight
24 Feb - 13:45:05 10° N 13:46:54 14° NNE 13:48:42 10° ENE daylight
24 Feb - 15:20:26 10° NW 15:23:43 78° SW 15:26:58 10° SE daylight
25 Feb - 06:23:15 10° SSE 06:24:57 13° SE 06:26:38 10° E daylight
25 Feb - 07:57:53 10° WSW 08:01:05 47° NW 08:04:17 10° NE daylight
25 Feb - 14:27:58 10° NW 14:31:11 48° NE 14:34:21 10° ESE daylight
25 Feb - 16:05:43 10° W 16:07:18 13° SW 16:08:53 10° SSW daylight
26 Feb - 07:05:15 10° SW 07:08:32 80° SE 07:11:50 10° NE daylight
26 Feb - 08:43:34 10° WNW 08:45:22 14° NNW 08:47:10 10° N daylight
26 Feb - 13:35:43 10° NNW 13:38:32 26° NNE 13:41:20 10° E daylight
26 Feb - 15:12:08 10° WNW 15:14:58 27° SW 15:17:45 10° S daylight
27 Feb - 06:13:02 10° SSW 06:16:04 35° SE 06:19:07 10° ENE daylight
27 Feb - 07:49:58 10° W 07:52:36 21° NNW 07:55:13 10° NNE daylight
27 Feb - 12:43:39 10° NNW 12:45:48 16° NNE 12:47:55 10° ENE daylight
27 Feb - 14:19:16 10° NW 14:22:31 59° SW 14:25:44 10° SE daylight
28 Feb - 05:21:27 10° S 05:23:40 17° SE 05:25:53 10° E visible
28 Feb - 06:56:48 10° WSW 06:59:54 38° NW 07:03:00 10° NNE daylight
28 Feb - 11:52:08 10° N 11:52:57 11° NNE 11:53:44 10° NE daylight
28 Feb - 13:26:42 10° NW 13:29:58 61° NE 13:33:12 10° ESE daylight
28 Feb - 15:05:43 10° WSW 15:06:00 10° SW 15:06:17 10° SW daylight
01 Mar - 06:04:00 10° SW 06:07:16 79° NW 06:10:35 10° NE visible
01 Mar - 07:42:47 10° NW 07:44:12 12° NNW 07:45:37 10° N daylight
01 Mar - 12:34:21 10° NNW 12:37:20 31° NE 12:40:17 10° E daylight
01 Mar - 14:11:04 10° WNW 14:13:38 21° SW 14:16:11 10° S daylight
02 Mar - 05:11:35 10° SSW 05:14:44 45° SE 05:17:55 10° ENE visible
02 Mar - 06:48:57 10° WNW 06:51:22 18° NNW 06:53:46 10° NNE daylight
02 Mar - 11:42:10 10° NNW 11:44:34 18° NNE 11:46:57 10° ENE daylight
02 Mar - 13:18:01 10° WNW 13:21:11 45° SW 13:24:19 10° SSE daylight
03 Mar - 04:19:44 10° S 04:22:17 21° SE 04:24:50 10° ENE visible
03 Mar - 05:55:38 10° W 05:58:36 31° NW 06:01:35 10° NNE visible
03 Mar - 10:50:19 10° N 10:51:42 12° NNE 10:53:05 10° NE daylight
03 Mar - 12:25:20 10° NW 12:28:38 79° NE 12:31:54 10° SE daylight
